KC2DUX Weather Reports


Display with metric or nautical units.
time (UTC)temp
F
wind
direction
speed
MPH
gust
MPH
rain 1hr
in
rain 24hr
in
rain mn
in
humidity
%
barometer
mb
20260905045020 74 249 2.0 5.0 0.13 0.52 0.13 90 1010.5
20260905044519 74 254 0.0 5.0 0.13 0.52 0.13 90 1010.5
20260905044018 74 256 2.0 8.0 0.13 0.52 0.13 90 1010.5
20260905043519 75 248 3.0 8.0 0.13 0.52 0.13 90 1010.6
20260905043019 75 262 1.0 10.0 0.13 0.52 0.13 89 1010.5
20260905042515 75 309 3.0 13.0 0.11 0.50 0.11 88 1010.7
20260905042014 76 82 5.0 13.0 0.08 0.47 0.08 87 1010.7
20260905041513 77 346 3.0 9.0 0.04 0.43 0.04 87 1010.7
20260905041012 77 348 1.0 4.0 0.03 0.42 0.03 88 1010.6
20260905040510 78 306 0.0 1.0 0.01 0.40 0.01 88 1010.5
20260905040009 78 240 0.0 0.0 0.00 0.39 0.00 87 1010.3
20260905035509 78 240 0.0 0.0 0.00 0.39 0.39 86 1010.2
20260905035008 78 240 0.0 1.0 0.00 0.39 0.39 86 1010.1
20260905034512 78 240 0.0 1.0 0.00 0.39 0.39 85 1010.2
20260905034009 79 240 0.0 2.0 0.00 0.39 0.39 85 1010.2
20260905033507 79 240 0.0 2.0 0.00 0.39 0.39 84 1010.3
20260905033007 79 240 0.0 2.0 0.00 0.39 0.39 84 1010.4
20260905032506 79 240 0.0 2.0 0.00 0.39 0.39 84 1010.3
20260905032006 79 240 1.0 2.0 0.00 0.39 0.39 84 1010.3
20260905031513 79 228 0.0 2.0 0.00 0.39 0.39 84 1010.4
20260905031009 79 231 0.0 3.0 0.00 0.39 0.39 85 1010.5
20260905030506 78 285 1.0 3.0 0.00 0.39 0.39 85 1010.6
20260905030007 78 242 0.0 3.0 0.00 0.39 0.39 86 1010.5
20260905025506 78 217 1.0 3.0 0.00 0.39 0.39 87 1010.6
20260905025005 78 276 0.0 3.0 0.00 0.39 0.39 88 1010.7
20260905024506 77 242 0.0 2.0 0.00 0.39 0.39 89 1010.6
20260905024005 77 250 0.0 1.0 0.00 0.39 0.39 89 1010.5
20260905023505 77 250 0.0 1.0 0.00 0.39 0.39 90 1010.5
20260905023015 77 250 0.0 1.0 0.00 0.39 0.39 89 1010.4
20260905022505 77 250 0.0 1.0 0.00 0.39 0.39 89 1010.4
20260905022005 77 250 0.0 0.0 0.00 0.39 0.39 89 1010.4
20260905021506 77 250 0.0 1.0 0.00 0.39 0.39 89 1010.4
20260905021006 77 250 0.0 1.0 0.00 0.39 0.39 89 1010.3
20260905020506 77 250 0.0 1.0 0.00 0.39 0.39 88 1010.4
20260905020005 77 250 0.0 0.0 0.00 0.39 0.39 88 1010.4
20260905015505 77 250 0.0 0.0 0.00 0.39 0.39 88 1010.5
20260905015005 77 250 0.0 1.0 0.00 0.39 0.39 87 1010.6
20260905014505 77 250 0.0 1.0 0.00 0.39 0.39 87 1010.5
20260905014003 77 250 0.0 0.0 0.00 0.39 0.39 86 1010.6
20260905013504 77 250 0.0 0.0 0.00 0.39 0.39 86 1010.6
20260905013006 78 250 0.0 1.0 0.00 0.39 0.39 85 1010.6
20260905012503 78 250 0.0 1.0 0.00 0.39 0.39 84 1010.6
20260905012003 78 250 0.0 1.0 0.00 0.39 0.39 84 1010.5
20260905011503 79 250 0.0 1.0 0.00 0.39 0.39 83 1010.4
20260905011007 79 250 0.0 1.0 0.00 0.39 0.39 83 1010.5
20260905010503 79 250 0.0 1.0 0.00 0.39 0.39 83 1010.4
20260905010002 79 250 0.0 1.0 0.00 0.39 0.39 82 1010.4
20260905005504 79 250 0.0 1.0 0.00 0.39 0.39 81 1010.5
20260905005002 79 250 0.0 1.0 0.00 0.39 0.39 80 1010.5
20260905004502 79 250 0.0 2.0 0.00 0.39 0.39 80 1010.5
20260905004001 79 288 0.0 2.0 0.00 0.39 0.39 79 1010.6
20260905003501 80 261 0.0 2.0 0.00 0.39 0.39 79 1010.6
20260905003008 80 286 0.0 2.0 0.00 0.39 0.39 79 1010.4
20260905002500 80 261 0.0 2.0 0.00 0.39 0.39 79 1010.2
20260905002102 80 261 0.0 2.0 0.00 0.39 0.39 78 1010.2
20260905001601 80 263 0.0 3.0 0.00 0.39 0.39 78 1010.1
20260905001100 80 254 0.0 3.0 0.00 0.39 0.39 78 1010.0
20260905000604 80 250 0.0 4.0 0.00 0.39 0.39 78 1010.1
20260905000100 80 294 0.0 3.0 0.00 0.39 0.39 77 1010.1
20260904235601 80 298 1.0 3.0 0.00 0.39 0.39 77 1010.0
20260904235102 80 265 1.0 3.0 0.00 0.39 0.39 77 1009.9
20260904234559 81 227 1.0 2.0 0.00 0.39 0.39 77 1009.9
20260904234059 81 244 0.0 3.0 0.00 0.39 0.39 76 1010.0
20260904233559 81 277 0.0 3.0 0.00 0.39 0.39 76 1009.8
20260904233057 81 261 0.0 3.0 0.00 0.39 0.39 76 1010.0
20260904232557 81 260 1.0 3.0 0.00 0.39 0.39 75 1010.1
20260904232057 81 279 0.0 4.0 0.00 0.39 0.39 75 1010.2
20260904231559 81 247 1.0 4.0 0.00 0.39 0.39 75 1010.3
20260904231056 82 326 1.0 4.0 0.00 0.39 0.39 75 1010.2
20260904230558 82 261 1.0 4.0 0.00 0.39 0.39 74 1010.2
20260904230107 82 297 1.0 5.0 0.00 0.39 0.39 74 1010.2
20260904225554 82 228 1.0 9.0 0.00 0.39 0.39 74 1010.3
20260904225054 82 320 3.0 9.0 0.00 0.39 0.39 74 1010.6
20260904224605 82 260 2.0 7.0 0.00 0.39 0.39 74 1010.7
20260904224057 83 259 2.0 5.0 0.00 0.39 0.39 73 1010.6
20260904223557 83 270 1.0 5.0 0.00 0.39 0.39 72 1010.5
20260904223107 83 295 1.0 5.0 0.00 0.39 0.39 71 1010.5
20260904222555 83 263 1.0 8.0 0.00 0.39 0.39 71 1010.6
20260904222053 83 252 4.0 9.0 0.00 0.39 0.39 71 1010.6
20260904221610 83 278 3.0 11.0 0.00 0.39 0.39 70 1010.7
20260904221052 83 355 2.0 11.0 0.00 0.39 0.39 70 1010.5
20260904220552 84 270 2.0 9.0 0.00 0.39 0.39 69 1010.5
20260904220051 84 282 2.0 8.0 0.00 0.39 0.39 68 1010.4
20260904215556 84 199 3.0 9.0 0.00 0.39 0.39 68 1010.5
20260904215050 84 275 4.0 9.0 0.00 0.39 0.39 68 1010.5
20260904214553 84 295 3.0 8.0 0.00 0.39 0.39 68 1010.6
20260904214050 85 250 3.0 8.0 0.00 0.39 0.39 69 1010.6
20260904213550 85 228 3.0 8.0 0.00 0.39 0.39 67 1010.5
20260904213057 85 211 3.0 8.0 0.00 0.39 0.39 66 1010.6
20260904212550 86 274 4.0 12.0 0.00 0.39 0.39 65 1010.4
20260904212051 86 236 3.0 12.0 0.00 0.39 0.39 65 1010.5
20260904211549 86 264 4.0 11.0 0.00 0.39 0.39 65 1010.4
20260904211049 86 274 5.0 11.0 0.00 0.39 0.39 65 1010.5
20260904210550 86 251 4.0 9.0 0.00 0.39 0.39 67 1010.5
20260904210049 86 261 4.0 11.0 0.00 0.39 0.39 67 1010.3
20260904205548 86 200 3.0 12.0 0.00 0.39 0.39 65 1010.4
20260904205046 86 197 5.0 12.0 0.00 0.39 0.39 64 1010.3
20260904204546 86 267 4.0 12.0 0.00 0.39 0.39 66 1010.5
20260904204046 86 206 4.0 12.0 0.00 0.39 0.39 66 1010.5
20260904203549 86 202 2.0 9.0 0.00 0.39 0.39 66 1010.5
20260904203046 86 288 4.0 11.0 0.00 0.39 0.39 65 1010.5
20260904202546 87 218 6.0 11.0 0.00 0.39 0.39 64 1010.5
20260904202045 87 331 2.0 10.0 0.00 0.39 0.39 63 1010.5
20260904201545 87 321 2.0 10.0 0.00 0.39 0.39 64 1010.5
20260904201045 87 257 4.0 10.0 0.00 0.39 0.39 63 1010.5
20260904200543 87 316 2.0 13.0 0.00 0.39 0.39 63 1010.5
20260904200101 87 250 6.0 13.0 0.00 0.39 0.39 63 1010.7
20260904195543 87 207 3.0 8.0 0.00 0.39 0.39 64 1010.8
20260904195041 86 242 0.0 6.0 0.00 0.39 0.39 67 1010.8
20260904194544 85 275 2.0 9.0 0.00 0.39 0.39 65 1010.8
20260904194039 86 264 1.0 9.0 0.00 0.39 0.39 65 1010.9
20260904193539 86 202 4.0 9.0 0.00 0.39 0.39 64 1010.9
20260904193041 86 275 4.0 9.0 0.00 0.39 0.39 64 1011.1
20260904192537 87 245 3.0 9.0 0.00 0.39 0.39 63 1011.1
20260904192041 87 228 3.0 10.0 0.00 0.39 0.39 63 1011.2
20260904191544 87 291 4.0 10.0 0.00 0.39 0.39 63 1011.2
20260904191037 87 273 4.0 10.0 0.00 0.39 0.39 63 1011.3
20260904190536 87 234 5.0 14.0 0.00 0.39 0.39 62 1011.3
20260904190039 87 283 7.0 14.0 0.00 0.39 0.39 62 1011.2
20260904185535 87 272 6.0 12.0 0.00 0.39 0.39 60 1011.2
20260904185035 87 217 6.0 12.0 0.00 0.39 0.39 61 1011.3
20260904184534 87 197 6.0 12.0 0.00 0.39 0.39 61 1011.3
20260904184035 88 248 5.0 11.0 0.00 0.39 0.39 60 1011.3
20260904183534 88 224 2.0 11.0 0.00 0.39 0.39 58 1011.3
20260904183035 88 294 2.0 12.0 0.00 0.39 0.39 59 1011.4
20260904182535 88 257 3.0 12.0 0.00 0.39 0.39 55 1011.5
20260904182037 88 227 4.0 9.0 0.00 0.39 0.39 56 1011.5
20260904181532 88 272 1.0 13.0 0.00 0.39 0.39 58 1011.7
20260904181033 87 87 4.0 11.0 0.00 0.39 0.39 62 1011.5
20260904180530 87 218 6.0 13.0 0.00 0.39 0.39 61 1011.6
20260904180030 87 220 6.0 13.0 0.00 0.39 0.39 63 1011.4
20260904175529 87 207 3.0 11.0 0.00 0.39 0.39 62 1011.5
20260904175029 87 245 5.0 10.0 0.00 0.39 0.39 63 1011.5
20260904174530 87 234 1.0 7.0 0.00 0.39 0.39 64 1011.5
20260904174027 87 240 2.0 6.0 0.00 0.39 0.39 61 1011.5
20260904173529 86 257 3.0 5.0 0.00 0.39 0.39 61 1011.7
20260904173028 86 285 2.0 9.0 0.00 0.39 0.39 61 1011.6
20260904172528 87 265 3.0 9.0 0.00 0.39 0.39 60 1011.6
20260904172027 87 298 3.0 7.0 0.00 0.39 0.39 59 1011.6
20260904171551 87 47 2.0 9.0 0.00 0.39 0.39 62 1011.7
20260904171026 87 315 1.0 9.0 0.00 0.39 0.39 61 1011.7
20260904170530 88 246 2.0 6.0 0.00 0.39 0.39 61 1011.7
20260904170024 87 355 2.0 8.0 0.00 0.39 0.39 60 1011.7
20260904165528 87 253 1.0 8.0 0.00 0.39 0.39 61 1011.7
20260904165023 87 294 0.0 4.0 0.00 0.39 0.39 61 1011.7
20260904164523 87 57 1.0 4.0 0.00 0.39 0.39 61 1011.7
20260904164022 87 292 2.0 8.0 0.00 0.39 0.39 60 1011.7
20260904163522 86 360 3.0 8.0 0.00 0.39 0.39 61 1011.7
20260904163039 87 302 2.0 5.0 0.00 0.39 0.39 61 1011.7
20260904162521 87 40 2.0 5.0 0.00 0.39 0.39 61 1011.9
20260904162024 87 334 1.0 7.0 0.00 0.39 0.39 62 1011.7
20260904161520 86 279 1.0 6.0 0.00 0.39 0.39 63 1011.7
20260904161019 87 211 1.0 5.0 0.00 0.39 0.39 62 1011.8
20260904160521 87 30 1.0 7.0 0.00 0.39 0.39 63 1011.9
20260904160017 86 82 1.0 7.0 0.00 0.39 0.39 64 1011.9
20260904155517 86 100 2.0 4.0 0.00 0.39 0.39 63 1012.0
20260904155015 86 318 1.0 5.0 0.00 0.39 0.39 65 1012.0
20260904154517 86 5 0.0 5.0 0.00 0.39 0.39 66 1012.0
20260904154013 85 61 1.0 5.0 0.00 0.39 0.39 67 1011.9
20260904153511 84 355 2.0 7.0 0.00 0.39 0.39 66 1012.0
20260904153011 84 267 1.0 9.0 0.00 0.39 0.39 68 1012.0
20260904152511 84 264 2.0 9.0 0.00 0.39 0.39 67 1012.1
20260904152010 84 350 3.0 6.0 0.00 0.39 0.39 66 1012.1
20260904151526 84 355 1.0 5.0 0.00 0.39 0.39 67 1012.1
20260904151010 84 38 1.0 8.0 0.00 0.39 0.39 69 1012.1
20260904150507 83 5 2.0 9.0 0.00 0.39 0.39 69 1012.1
20260904150006 83 15 2.0 9.0 0.00 0.39 0.39 70 1012.1
20260904145507 83 246 2.0 9.0 0.00 0.39 0.39 69 1012.1
20260904145005 83 348 2.0 9.0 0.00 0.39 0.39 70 1012.0
20260904144506 82 52 2.0 9.0 0.00 0.39 0.39 70 1012.1
20260904144004 83 297 0.0 8.0 0.00 0.39 0.39 71 1012.0
20260904143503 82 298 2.0 6.0 0.00 0.39 0.39 70 1012.0
20260904143002 82 331 2.0 7.0 0.00 0.39 0.39 72 1011.9
20260904142502 82 225 1.0 10.0 0.00 0.39 0.39 72 1011.9
20260904142101 82 311 3.0 8.0 0.00 0.39 0.39 72 1011.9
20260904141559 82 325 2.0 6.0 0.00 0.39 0.39 72 1011.9
20260904141058 81 192 2.0 6.0 0.00 0.39 0.39 72 1012.0
20260904140557 81 10 1.0 8.0 0.00 0.39 0.39 73 1012.0
20260904140055 81 286 2.0 8.0 0.00 0.39 0.39 75 1011.9
20260904135555 80 277 2.0 8.0 0.00 0.39 0.39 75 1011.9
20260904135054 80 334 2.0 8.0 0.00 0.39 0.39 75 1011.9
20260904134557 80 58 2.0 11.0 0.00 0.39 0.39 75 1011.9
20260904134052 80 313 2.0 7.0 0.00 0.39 0.39 77 1011.8
20260904133550 80 360 2.0 8.0 0.00 0.39 0.39 77 1011.8
20260904133103 79 301 0.0 8.0 0.00 0.39 0.39 78 1011.8
20260904132550 79 319 1.0 9.0 0.00 0.39 0.39 79 1011.7
20260904132050 79 34 2.0 10.0 0.00 0.39 0.39 80 1011.8
20260904131549 79 341 2.0 10.0 0.00 0.39 0.39 79 1011.9
20260904131052 78 313 1.0 7.0 0.00 0.39 0.39 81 1011.9
20260904130551 78 315 2.0 9.0 0.00 0.39 0.39 81 1011.9
20260904130149 78 344 1.0 9.0 0.00 0.39 0.39 82 1011.9
20260904125548 78 327 3.0 9.0 0.00 0.42 0.39 81 1011.9
20260904125051 77 255 2.0 8.0 0.00 0.42 0.39 83 1012.1
20260904124547 77 288 2.0 5.0 0.00 0.42 0.39 83 1012.0
20260904124047 77 264 2.0 8.0 0.00 0.42 0.39 83 1011.8
20260904123547 77 339 1.0 10.0 0.00 0.42 0.39 84 1011.7
20260904123051 76 59 3.0 10.0 0.00 0.42 0.39 84 1011.9
20260904122547 76 261 3.0 6.0 0.00 0.42 0.39 86 1012.0
20260904122047 76 300 2.0 8.0 0.00 0.42 0.39 87 1012.0
20260904121547 75 31 3.0 10.0 0.00 0.42 0.39 88 1011.8
20260904121046 75 244 3.0 10.0 0.00 0.42 0.39 89 1011.9
20260904120546 74 239 2.0 10.0 0.00 0.42 0.39 89 1011.9
20260904120054 74 313 2.0 8.0 0.00 0.42 0.39 89 1012.0
20260904115546 74 294 2.0 8.0 0.00 0.44 0.39 89 1012.0
20260904115045 74 313 3.0 11.0 0.00 0.44 0.39 90 1011.9
20260904114549 74 300 2.0 8.0 0.00 0.44 0.39 90 1012.0
20260904114045 74 293 3.0 13.0 0.00 0.44 0.39 90 1012.0
20260904113545 74 217 3.0 13.0 0.00 0.44 0.39 91 1011.8
20260904113045 74 290 2.0 10.0 0.00 0.44 0.39 90 1011.8
20260904112544 74 269 2.0 9.0 0.00 0.44 0.39 90 1011.8
20260904112045 74 254 1.0 9.0 0.00 0.44 0.39 90 1011.8
20260904111543 74 245 3.0 9.0 0.00 0.44 0.39 90 1011.8
20260904111043 74 293 2.0 7.0 0.00 0.44 0.39 90 1011.6
20260904110543 74 291 4.0 8.0 0.00 0.44 0.39 90 1011.7
20260904110044 74 243 2.0 9.0 0.00 0.44 0.39 90 1011.6
20260904105544 74 306 3.0 11.0 0.00 0.48 0.39 90 1011.5
20260904105042 74 276 4.0 11.0 0.00 0.48 0.39 90 1011.4
20260904104544 74 306 2.0 8.0 0.00 0.48 0.39 90 1011.2
20260904104042 74 272 1.0 7.0 0.00 0.48 0.39 90 1011.1
20260904103545 74 189 2.0 7.0 0.00 0.48 0.39 90 1011.2
20260904103043 74 248 2.0 4.0 0.00 0.48 0.39 89 1011.1
20260904102541 74 256 1.0 10.0 0.00 0.48 0.39 89 1011.1
20260904102040 74 288 3.0 10.0 0.00 0.48 0.39 89 1011.2
20260904101541 74 276 4.0 10.0 0.00 0.48 0.39 89 1011.3
20260904101043 74 211 3.0 10.0 0.00 0.48 0.39 89 1011.3
20260904100542 75 245 4.0 10.0 0.00 0.48 0.39 89 1011.2
20260904100039 74 207 4.0 9.0 0.00 0.48 0.39 90 1011.3
20260904095539 74 194 2.0 10.0 0.00 0.74 0.39 90 1011.2
20260904095038 74 227 2.0 10.0 0.00 0.74 0.39 90 1011.3
20260904094538 74 285 3.0 8.0 0.00 0.74 0.39 90 1011.3
20260904094037 74 217 3.0 8.0 0.00 0.74 0.39 90 1011.3
20260904093538 75 263 4.0 9.0 0.00 0.74 0.39 90 1011.3
20260904093038 75 293 2.0 9.0 0.00 0.74 0.39 90 1011.3
20260904092537 75 271 3.0 8.0 0.00 0.74 0.39 89 1011.2
20260904092037 75 264 3.0 11.0 0.00 0.74 0.39 89 1011.2
20260904091538 75 265 3.0 9.0 0.00 0.74 0.39 89 1011.3
20260904091036 75 212 3.0 9.0 0.00 0.74 0.39 90 1011.5
20260904090535 75 277 2.0 10.0 0.00 0.74 0.39 90 1011.6
20260904090036 75 276 4.0 10.0 0.00 0.74 0.39 90 1011.4
20260904085536 76 261 3.0 10.0 0.00 0.78 0.39 89 1011.3
20260904085035 76 209 3.0 10.0 0.00 0.78 0.39 89 1011.5
20260904084536 76 259 3.0 9.0 0.00 0.78 0.39 89 1011.5
20260904084038 76 204 3.0 9.0 0.00 0.78 0.39 89 1011.5
20260904083536 76 218 4.0 10.0 0.00 0.78 0.39 89 1011.7
20260904083034 76 284 3.0 11.0 0.00 0.78 0.39 89 1011.9
20260904082534 76 250 3.0 13.0 0.00 0.78 0.39 89 1011.8
20260904082035 76 238 4.0 13.0 0.03 0.78 0.39 89 1012.0
20260904081535 75 232 5.0 11.0 0.17 0.78 0.39 90 1011.8
20260904081038 75 229 5.0 10.0 0.28 0.78 0.39 90 1011.8
20260904080534 75 233 3.0 14.0 0.37 0.78 0.39 90 1011.8
20260904080050 75 271 5.0 14.0 0.38 0.78 0.39 91 1011.9
20260904075534 75 280 5.0 10.0 0.38 1.00 0.39 91 1011.9
20260904075033 75 251 4.0 10.0 0.39 1.00 0.39 91 1011.9
20260904074532 75 271 5.0 10.0 0.39 1.00 0.39 91 1011.8
20260904074034 75 247 3.0 9.0 0.39 1.00 0.39 92 1012.0
20260904073533 75 244 3.0 9.0 0.39 1.00 0.39 92 1011.8
20260904073032 75 275 4.0 14.0 0.39 1.00 0.39 92 1011.8
20260904072531 74 234 5.0 15.0 0.39 1.00 0.39 91 1011.9
20260904072031 74 245 8.0 18.0 0.35 0.96 0.35 91 1012.0
20260904071533 75 242 7.0 18.0 0.21 0.82 0.21 90 1012.2
20260904071029 75 269 10.0 21.0 0.09 0.70 0.09 89 1012.2
20260904070529 76 248 11.0 21.0 0.02 0.63 0.02 87 1011.8
20260904070038 77 224 12.0 19.0 0.01 0.62 0.01 85 1011.8
20260904065524 78 238 9.0 13.0 0.01 1.01 0.01 81 1011.7
20260904065022 78 225 8.0 12.0 0.00 1.00 0.00 81 1011.4
20260904064523 78 193 6.0 12.0 0.00 1.00 0.00 83 1011.5
20260904064021 78 290 3.0 9.0 0.00 1.00 0.00 84 1011.6
20260904063521 78 258 3.0 16.0 0.00 1.00 0.00 83 1011.7
20260904063021 79 207 7.0 14.0 0.00 1.00 0.00 82 1011.8
20260904062519 79 216 8.0 14.0 0.00 1.00 0.00 88 1011.7
20260904062019 79 224 6.0 12.0 0.00 1.00 0.00 91 1011.6
20260904061518 79 244 5.0 12.0 0.00 1.00 0.00 91 1011.5
20260904061020 79 232 4.0 7.0 0.00 1.00 0.00 91 1011.3
20260904060517 79 244 3.0 7.0 0.00 1.00 0.00 91 1011.2
20260904060017 79 215 2.0 7.0 0.00 1.00 0.00 91 1011.2
20260904055516 79 295 1.0 5.0 0.00 1.00 0.00 91 1011.2
20260904055014 79 232 2.0 5.0 0.00 1.00 0.00 92 1011.3
20260904054528 79 274 1.0 6.0 0.00 1.00 0.00 92 1011.4
20260904054014 79 292 1.0 6.0 0.00 1.00 0.00 91 1011.4
20260904053513 79 215 1.0 3.0 0.00 1.00 0.00 91 1011.3
20260904053018 78 209 1.0 3.0 0.00 1.00 0.00 91 1011.3
20260904052515 78 243 0.0 2.0 0.00 1.00 0.00 91 1011.5
20260904052015 78 243 0.0 2.0 0.00 1.00 0.00 90 1011.4
20260904051514 78 243 0.0 3.0 0.00 1.00 0.00 90 1011.4
20260904051015 78 223 1.0 3.0 0.00 1.00 0.00 90 1011.6
20260904050512 78 227 1.0 3.0 0.00 1.00 0.00 91 1011.5
20260904050012 78 223 2.0 3.0 0.00 1.00 0.00 91 1011.8
20260904045512 78 215 0.0 1.0 0.00 1.00 0.00 90 1012.1